Date String (YYYY-MM-DD hh:mm:ss) UTC,Instrument flags,Ambient pressure (hPa),Sample flow (lpm),Bypass flow (lpm),Sample temperature (°C),Ambient temperature (°C),ASC tube jacket temperature (°C),LED temperature (°C),Box temperature (°C),Sample RH (%),Span deviation,Mass concentration (μg/m³),Mass concentration (μg/m³),Mass concentration (μg/m³)
DateTimeUTC,F1_M11,P_M11,Q1_M11,Q2_M11,T1_M11,T2_M11,T3_M11,T4_M11,T5_M11,U1_M11,ZSPAN_M11,X0_M11,X2_M11,X1_M11
2022-09-25 16:00:00,,0836.0,4.99,0.00,30.8,29.5,00.0,39.4,32.6,16.9,0001.1,0012.65,0006.81,0006.17
2022-09-25 16:01:00,,0836.0,5.00,0.00,30.8,29.5,00.0,39.4,32.6,16.6,0002.5,0012.62,0006.82,0006.16
2022-09-25 16:02:00,,0836.0,5.01,0.00,30.8,29.5,00.0,39.4,32.6,16.5,0002.6,0012.08,0006.79,0006.16
2022-09-25 16:03:00,,0836.0,4.99,0.00,30.8,29.6,00.0,39.4,32.7,16.5,0002.6,0011.95,0006.74,0006.16
2022-09-25 16:04:00,,0836.0,5.00,0.00,30.8,29.6,00.0,39.5,32.7,16.5,0002.4,0010.89,0006.74,0006.15
2022-09-25 16:05:00,,0836.0,5.00,0.00,30.8,29.6,00.0,39.5,32.7,16.3,0001.9,0010.17,0006.75,0006.15
2022-09-25 16:06:00,,0836.1,5.00,0.00,30.8,29.6,00.0,39.5,32.7,16.0,0001.0,0010.25,0006.76,0006.15
2022-09-25 16:07:00,,0836.1,4.99,0.00,30.8,29.6,00.0,39.5,32.7,16.2,0000.7,0010.23,0006.76,0006.14
2022-09-25 16:08:00,,0836.0,5.01,0.00,30.9,29.6,00.0,39.5,32.7,16.2,0000.4,0010.51,0006.78,0006.15
2022-09-25 16:09:00,,0836.0,5.00,0.00,30.9,29.6,00.0,39.5,32.7,16.2,0000.0,0010.53,0006.77,0006.14
2022-09-25 16:10:00,,0836.0,5.00,0.00,30.9,29.7,00.0,39.5,32.7,16.3,0000.0,0010.88,0006.76,0006.13
2022-09-25 16:11:00,,0836.1,5.01,0.00,30.9,29.7,00.0,39.6,32.7,16.0,0000.0,0012.03,0006.76,0006.11
2022-09-25 16:12:00,,0836.0,4.99,0.00,30.9,29.7,00.0,39.6,32.8,15.9,0000.0,0012.16,0006.75,0006.11
2022-09-25 16:13:00,,0836.0,5.01,0.00,30.9,29.7,00.0,39.6,32.8,16.0,0000.0,0012.16,0006.76,0006.11
2022-09-25 16:14:00,,0836.0,5.00,0.00,30.9,29.7,00.0,39.6,32.8,15.9,0000.0,0012.09,0006.78,0006.11
2022-09-25 16:15:00,,0836.0,5.00,0.00,30.9,29.7,00.0,39.6,32.8,16.0,0000.3,0012.20,0006.75,0006.11
2022-09-25 16:16:00,,0836.0,5.00,0.00,31.0,29.8,00.0,39.6,32.8,16.1,0000.4,0012.70,0006.74,0006.11
2022-09-25 16:17:00,,0836.0,5.00,0.00,31.0,29.8,00.0,39.6,32.8,16.1,0000.4,0012.58,0006.71,0006.11
2022-09-25 16:18:00,,0836.1,5.01,0.00,31.0,29.8,00.0,39.7,32.8,16.1,0000.6,0012.54,0006.72,0006.11
2022-09-25 16:19:00,,0836.1,5.00,0.00,31.0,29.8,00.0,39.7,32.9,16.2,0000.4,0012.53,0006.70,0006.12
2022-09-25 16:20:00,,0836.1,5.00,0.00,31.0,29.8,00.0,39.7,32.9,16.3,0000.6,0012.95,0006.73,0006.13
2022-09-25 16:21:00,,0836.0,5.00,0.00,31.0,29.8,00.0,39.7,32.9,16.4,0000.4,0012.94,0006.76,0006.15
2022-09-25 16:22:00,,0836.0,4.99,0.00,31.1,29.9,00.0,39.7,32.9,16.5,0000.8,0012.15,0006.77,0006.16
2022-09-25 16:23:00,,0836.1,5.00,0.00,31.1,29.9,00.0,39.7,32.9,16.3,0000.9,0012.91,0006.79,0006.17
2022-09-25 16:24:00,,0836.1,5.01,0.00,31.1,29.9,00.0,39.7,32.9,16.2,0000.8,0013.25,0006.80,0006.17
2022-09-25 16:25:00,,0836.0,4.99,0.00,31.1,29.9,00.0,39.8,32.9,16.0,0001.2,0013.85,0006.86,0006.18
2022-09-25 16:26:00,,0836.0,4.99,0.00,31.1,29.9,00.0,39.8,33.0,16.0,0001.4,0014.03,0006.90,0006.20
2022-09-25 16:27:00,,0836.0,5.00,0.00,31.1,29.9,00.0,39.8,33.0,16.3,0001.5,0013.64,0006.92,0006.19
2022-09-25 16:28:00,,0836.1,5.00,0.00,31.1,29.9,00.0,39.8,33.0,16.5,0001.9,0013.94,0006.99,0006.21
2022-09-25 16:29:00,,0836.0,5.00,0.00,31.1,29.9,00.0,39.8,33.0,16.1,0002.2,0014.30,0007.00,0006.22
2022-09-25 16:30:00,,0836.0,4.99,0.00,31.1,29.9,00.0,39.8,33.0,16.1,0002.1,0014.53,0007.00,0006.22
2022-09-25 16:31:00,,0836.1,4.99,0.00,31.2,29.9,00.0,39.8,33.0,15.7,0001.5,0013.99,0006.99,0006.21
2022-09-25 16:32:00,,0836.0,5.01,0.00,31.2,29.9,00.0,39.8,33.0,15.6,0001.2,0013.77,0006.96,0006.20
2022-09-25 16:33:00,,0836.0,5.00,0.00,31.2,29.9,00.0,39.8,33.0,16.0,0000.0,0013.58,0006.95,0006.19
2022-09-25 16:34:00,,0836.1,4.99,0.00,31.2,29.9,00.0,39.9,33.0,16.2,0000.0,0013.05,0006.94,0006.18
2022-09-25 16:35:00,,0836.0,5.02,0.00,31.2,29.9,00.0,39.9,33.0,16.3,0001.0,0012.70,0006.91,0006.18
2022-09-25 16:36:00,,0836.0,4.99,0.00,31.2,29.9,00.0,39.9,33.0,16.5,0000.4,0011.99,0006.86,0006.17
2022-09-25 16:37:00,,0836.0,5.00,0.00,31.2,29.9,00.0,39.9,33.0,16.2,0000.9,0011.92,0006.87,0006.19
2022-09-25 16:38:00,,0836.0,5.01,0.00,31.2,29.9,00.0,39.9,33.0,16.2,0002.6,0011.98,0006.86,0006.20
2022-09-25 16:39:00,,0836.0,4.99,0.00,31.2,30.0,00.0,39.9,33.1,16.0,0003.2,0011.66,0006.79,0006.20
2022-09-25 16:40:00,,0836.0,5.00,0.00,31.3,30.0,00.0,39.9,33.1,15.9,0003.5,0011.22,0006.80,0006.20
2022-09-25 16:41:00,,0836.0,5.00,0.00,31.3,30.0,00.0,39.9,33.1,16.1,0003.5,0011.00,0006.82,0006.22
2022-09-25 16:42:00,,0836.0,4.99,0.00,31.3,30.1,00.0,40.0,33.1,16.0,0003.5,0011.17,0006.80,0006.22
2022-09-25 16:43:00,,0835.9,5.01,0.00,31.3,30.1,00.0,40.0,33.1,15.9,0003.7,0011.45,0006.82,0006.24
2022-09-25 16:44:00,,0835.9,4.99,0.00,31.3,30.1,00.0,40.0,33.1,15.9,0003.8,0011.43,0006.85,0006.27
2022-09-25 16:45:00,,0835.9,5.01,0.00,31.3,30.1,00.0,40.0,33.1,15.7,0003.5,0011.11,0006.86,0006.28
2022-09-25 16:46:00,,0835.9,5.00,0.00,31.3,30.1,00.0,40.0,33.1,15.8,0003.4,0011.43,0006.90,0006.28
2022-09-25 16:47:00,,0835.9,5.00,0.00,31.4,30.1,00.0,40.0,33.2,15.7,0003.4,0011.76,0006.92,0006.28
2022-09-25 16:48:00,,0835.9,5.00,0.00,31.4,30.1,00.0,40.0,33.2,15.7,0003.3,0012.26,0006.91,0006.28
2022-09-25 16:49:00,,0835.9,5.00,0.00,31.4,29.8,00.0,40.0,33.2,15.3,0003.2,0012.15,0006.96,0006.29
2022-09-25 16:50:00,,0835.9,5.01,0.00,31.4,28.4,00.0,40.0,33.0,15.3,0003.4,0012.10,0007.00,0006.30
2022-09-25 16:51:00,,0835.9,5.00,0.00,31.3,27.2,00.0,39.9,32.9,15.6,0003.4,0012.13,0006.98,0006.28
2022-09-25 16:52:00,,0835.8,5.00,0.00,31.2,27.2,00.0,39.9,32.8,15.5,0003.3,0012.20,0006.99,0006.26
2022-09-25 16:53:00,,0835.9,5.00,0.00,31.1,27.5,00.0,39.8,32.6,15.4,0001.7,0012.24,0007.02,0006.26
2022-09-25 16:54:00,,0835.9,5.00,0.00,31.0,27.9,00.0,39.8,32.6,15.5,0000.0,0012.03,0007.00,0006.25
2022-09-25 16:55:00,,0835.9,4.99,0.00,30.9,28.2,00.0,39.7,32.6,15.6,0002.3,0012.63,0006.93,0006.22
2022-09-25 16:56:00,,0835.9,5.00,0.00,30.9,28.5,00.0,39.7,32.5,15.6,0003.0,0012.53,0006.92,0006.21
2022-09-25 16:57:00,,0835.9,5.01,0.00,30.9,28.7,00.0,39.7,32.6,15.5,0003.1,0012.32,0006.89,0006.20
2022-09-25 16:58:00,,0835.9,5.01,0.00,30.9,28.9,00.0,39.7,32.6,15.5,0002.9,0012.06,0006.87,0006.20
2022-09-25 16:59:00,,0835.9,4.99,0.00,30.9,29.0,00.0,39.6,32.6,15.3,0002.4,0011.97,0006.85,0006.18
